| time (UTC) | temp C | wind direction | speed KPH | gust KPH | rain 1hr cm | rain 24hr cm | rain mn cm | humidity % | barometer mb |
| 20260503024506 | 32 | 69 | 6.4 | 14.5 | 0.00 | 0.00 | 0.00 | 11 | 1004.7 |
| 20260503023005 | 33 | 74 | 11.3 | 17.7 | 0.00 | 0.00 | 0.00 | 10 | 1004.4 |
| 20260503021547 | 33 | 72 | 8.0 | 16.1 | 0.00 | 0.00 | 0.00 | 10 | 1004.2 |
| 20260503020045 | 33 | 69 | 12.9 | 24.1 | 0.00 | 0.00 | 0.00 | 9 | 1004.1 |
| 20260503014528 | 34 | 101 | 11.3 | 17.7 | 0.00 | 0.00 | 0.00 | 10 | 1004.1 |
| 20260503013031 | 35 | 86 | 8.0 | 17.7 | 0.00 | 0.00 | 0.00 | 9 | 1004.1 |
| 20260503011509 | 35 | 82 | 12.9 | 17.7 | 0.00 | 0.00 | 0.00 | 9 | 1004.1 |
| 20260503010009 | 35 | 95 | 11.3 | 19.3 | 0.00 | 0.00 | 0.00 | 9 | 1004.1 |
| 20260503004551 | 35 | 72 | 12.9 | 24.1 | 0.00 | 0.00 | 0.00 | 9 | 1004.2 |
| 20260503003051 | 35 | 88 | 11.3 | 22.5 | 0.00 | 0.00 | 0.00 | 9 | 1004.3 |
| 20260503001543 | 35 | 118 | 11.3 | 22.5 | 0.00 | 0.00 | 0.00 | 9 | 1004.1 |
| 20260503000032 | 36 | 111 | 9.7 | 29.0 | 0.00 | 0.00 | 0.00 | 9 | 1004.2 |
| 20260502234522 | 35 | 107 | 9.7 | 16.1 | 0.00 | 0.00 | 0.00 | 8 | 1004.4 |
| 20260502233012 | 36 | 101 | 11.3 | 24.1 | 0.00 | 0.00 | 0.00 | 8 | 1004.6 |
| 20260502231552 | 36 | 105 | 14.5 | 29.0 | 0.00 | 0.00 | 0.00 | 8 | 1004.7 |
| 20260502230051 | 36 | 67 | 14.5 | 22.5 | 0.00 | 0.00 | 0.00 | 8 | 1004.8 |
| 20260502224533 | 36 | 77 | 11.3 | 22.5 | 0.00 | 0.00 | 0.00 | 8 | 1005.1 |
| 20260502223030 | 36 | 83 | 14.5 | 20.9 | 0.00 | 0.00 | 0.00 | 8 | 1005.6 |
| 20260502221511 | 36 | 128 | 14.5 | 20.9 | 0.00 | 0.00 | 0.00 | 8 | 1005.9 |
| 20260502220009 | 35 | 111 | 8.0 | 17.7 | 0.00 | 0.00 | 0.00 | 8 | 1006.2 |
| 20260502214549 | 36 | 93 | 8.0 | 17.7 | 0.00 | 0.00 | 0.00 | 8 | 1006.4 |
| 20260502213049 | 35 | 123 | 11.3 | 27.4 | 0.00 | 0.00 | 0.00 | 8 | 1006.5 |
| 20260502211528 | 35 | 118 | 8.0 | 25.7 | 0.00 | 0.00 | 0.00 | 8 | 1006.6 |
| 20260502210027 | 36 | 124 | 9.7 | 17.7 | 0.00 | 0.00 | 0.00 | 7 | 1007.0 |
| 20260502204507 | 36 | 102 | 8.0 | 16.1 | 0.00 | 0.00 | 0.00 | 7 | 1007.3 |
| 20260502203005 | 36 | 115 | 17.7 | 24.1 | 0.00 | 0.00 | 0.00 | 7 | 1007.4 |
| 20260502201555 | 35 | 83 | 4.8 | 17.7 | 0.00 | 0.00 | 0.00 | 7 | 1007.5 |
| 20260502200053 | 35 | 57 | 11.3 | 22.5 | 0.00 | 0.00 | 0.00 | 7 | 1007.7 |
| 20260502194550 | 36 | 126 | 8.0 | 17.7 | 0.00 | 0.00 | 0.00 | 8 | 1008.1 |
| 20260502193049 | 35 | 84 | 8.0 | 16.1 | 0.00 | 0.00 | 0.00 | 7 | 1008.4 |
| 20260502191556 | 35 | 162 | 9.7 | 19.3 | 0.00 | 0.00 | 0.00 | 8 | 1008.5 |
| 20260502190050 | 35 | 100 | 3.2 | 17.7 | 0.00 | 0.00 | 0.00 | 8 | 1008.6 |
| 20260502184548 | 35 | 106 | 8.0 | 17.7 | 0.00 | 0.00 | 0.00 | 8 | 1008.9 |
| 20260502183052 | 34 | 81 | 4.8 | 14.5 | 0.00 | 0.00 | 0.00 | 8 | 1009.0 |
| 20260502181519 | 34 | 136 | 4.8 | 17.7 | 0.00 | 0.00 | 0.00 | 9 | 1009.1 |
| 20260502163101 | 32 | 150 | 4.8 | 8.0 | 0.00 | 0.00 | 0.00 | 14 | 1009.1 |
| 20260502161536 | 32 | 188 | 1.6 | 6.4 | 0.00 | 0.00 | 0.00 | 15 | 1009.1 |
| 20260502151545 | 28 | 202 | 0.0 | 0.0 | 0.00 | 0.00 | 0.00 | 19 | 1009.0 |
| 20260502123041 | 23 | 312 | 8.0 | 16.1 | 0.00 | 0.00 | 0.00 | 23 | 1007.5 |
| 20260502121521 | 23 | 311 | 1.6 | 8.0 | 0.00 | 0.00 | 0.00 | 24 | 1007.2 |
| 20260502114501 | 23 | 298 | 1.6 | 6.4 | 0.00 | 0.00 | 0.00 | 24 | 1007.0 |
| 20260502113059 | 24 | 44 | 0.0 | 12.9 | 0.00 | 0.00 | 0.00 | 24 | 1007.0 |
| 20260502111606 | 24 | 306 | 8.0 | 16.1 | 0.00 | 0.00 | 0.00 | 23 | 1006.9 |
| 20260502110039 | 23 | 302 | 8.0 | 12.9 | 0.00 | 0.00 | 0.00 | 24 | 1007.0 |
| 20260502104538 | 23 | 324 | 6.4 | 12.9 | 0.00 | 0.00 | 0.00 | 25 | 1007.0 |
| 20260502103017 | 24 | 275 | 4.8 | 8.0 | 0.00 | 0.00 | 0.00 | 24 | 1007.0 |
| 20260502101526 | 23 | 287 | 6.4 | 12.9 | 0.00 | 0.00 | 0.00 | 24 | 1006.9 |
| 20260502091531 | 25 | 238 | 0.0 | 0.0 | 0.00 | 0.00 | 0.00 | 23 | 1007.3 |
| 20260502071503 | 26 | 318 | 3.2 | 9.7 | 0.00 | 0.00 | 0.00 | 25 | 1007.1 |
| 20260502070045 | 27 | 265 | 4.8 | 11.3 | 0.00 | 0.00 | 0.00 | 25 | 1007.0 |
| 20260502064543 | 27 | 277 | 8.0 | 16.1 | 0.00 | 0.00 | 0.00 | 24 | 1007.3 |
| 20260502063029 | 27 | 311 | 6.4 | 9.7 | 0.00 | 0.00 | 0.00 | 24 | 1007.3 |
| 20260502061525 | 28 | 324 | 4.8 | 12.9 | 0.00 | 0.00 | 0.00 | 25 | 1007.4 |
| 20260502060007 | 28 | 329 | 3.2 | 12.9 | 0.00 | 0.00 | 0.00 | 29 | 1007.3 |
| 20260502054507 | 28 | 346 | 6.4 | 14.5 | 0.00 | 0.00 | 0.00 | 29 | 1006.9 |
| 20260502053101 | 28 | 340 | 3.2 | 16.1 | 0.00 | 0.00 | 0.00 | 29 | 1007.0 |
| 20260502051603 | 29 | 301 | 4.8 | 14.5 | 0.00 | 0.00 | 0.00 | 27 | 1007.0 |
| 20260502050037 | 30 | 329 | 4.8 | 14.5 | 0.00 | 0.00 | 0.00 | 27 | 1006.9 |
| 20260502044536 | 30 | 317 | 14.5 | 19.3 | 0.00 | 0.00 | 0.00 | 26 | 1006.9 |
| 20260502043013 | 30 | 304 | 9.7 | 17.7 | 0.00 | 0.00 | 0.00 | 25 | 1006.6 |
| 20260502041513 | 30 | 290 | 8.0 | 17.7 | 0.00 | 0.00 | 0.00 | 24 | 1006.3 |
| 20260502040055 | 31 | 304 | 8.0 | 14.5 | 0.00 | 0.00 | 0.00 | 23 | 1006.4 |
| 20260502034555 | 31 | 337 | 4.8 | 14.5 | 0.00 | 0.00 | 0.00 | 22 | 1006.0 |
| 20260502033050 | 31 | 309 | 6.4 | 14.5 | 0.00 | 0.00 | 0.00 | 20 | 1005.8 |
| 20260502031537 | 31 | 291 | 4.8 | 14.5 | 0.00 | 0.00 | 0.00 | 19 | 1005.7 |
| 20260502030019 | 32 | 266 | 6.4 | 17.7 | 0.00 | 0.00 | 0.00 | 19 | 1005.4 |